Location: Goodmans Corner
(38.2049°N, 120.9872°W)
Time: 01:10:13
(UTC+00:00)

OTV 5 (USA 277) - Visible Passes

Search period start: 18 October 2019 00:00
Search period end: 28 October 2019 00:00
Orbit: 310 x 324 km, 54.5° (Epoch: 08 October)

Date Brightness Start Highest point End Pass type
(mag) Time Alt. Az. Time Alt. Az. Time Alt. Az.
18 Oct ? 13:42:20 10° NW 13:45:03 63° NE 13:47:44 10° SE visible
19 Oct ? 12:25:04 15° NNE 12:25:07 15° NNE 12:26:52 10° ENE visible
20 Oct ? 12:39:44 35° NNE 12:39:51 35° NE 12:42:24 10° ESE visible
21 Oct ? 12:54:32 67° SSW 12:54:32 67° SSW 12:57:07 10° SE visible
22 Oct ? 13:09:28 19° SSW 13:09:28 19° SSW 13:10:57 10° S visible
27 Oct ? 03:14:32 10° SW 03:14:58 14° WSW 03:14:58 14° WSW visible
